This demonstration page uses our WeatherBlox Daily Observations layout. Learn more.

Left ArrowRight Arrow

Hourly Observations for January 31, 2015

Temp ( °F °C ) Dew Point ( °F °C ) Humidity (%) Winds ( mph kmh ) Pressure ( in mb ) Visibility ( mi km ) Precip ( " mm )
12:53 am 00:53 Clear 15 -9.4 12 -11.1 88 88 N N/A 30.47 1032 9 14 N/A
1:53 am 01:53 Clear 14 -10 12 -11.1 92 92 N N/A 30.46 1032 9 14 N/A
2:53 am 02:53 Clear 14 -10 10 -12.2 84 84 N N/A 30.46 1032 8 13 N/A
3:53 am 03:53 Clear 13 -10.6 11 -11.7 92 92 N N/A 30.44 1031 8 13 N/A
4:53 am 04:53 Clear 13 -10.6 9 -12.8 84 84 N N/A 30.42 1030 8 13 N/A
5:53 am 05:53 Clear 13 -10.6 10 -12.2 88 88 N N/A 30.41 1030 9 14 N/A
6:53 am 06:53 Clear 13 -10.6 10 -12.2 88 88 N N/A 30.42 1030 9 14 N/A
7:53 am 07:53 Sunny 14 -10 11 -11.7 88 88 N N/A 30.43 1031 7 11 N/A
8:53 am 08:53 Sunny 21 -6.1 18 -7.8 88 88 N N/A 30.43 1030 7 11 N/A
9:53 am 09:53 Sunny 26 -3.3 20 -6.7 78 78 N N/A 30.42 1030 9 14 N/A
10:53 am 10:53 Mostly Sunny 31 -0.6 21 -6.1 67 67 W 3 6 30.42 1030 10 16 N/A
11:53 am 11:53 Sunny 35 1.7 19 -7.2 52 52 WSW 7 11 30.40 1029 10 16 N/A
12:53 pm 12:53 Sunny 37 2.8 20 -6.7 50 50 WSW 12 19 30.37 1028 10 16 N/A
1:53 pm 13:53 Sunny 37 2.8 20 -6.7 50 50 SW 8 13 30.34 1028 10 16 N/A
2:53 pm 14:53 Mostly Sunny 38 3.3 20 -6.7 48 48 SW 8 13 30.33 1027 10 16 N/A
3:53 pm 15:53 Sunny 39 3.9 21 -6.1 48 48 SSW 6 9 30.31 1026 10 16 N/A
4:53 pm 16:53 Sunny 38 3.3 21 -6.1 51 51 SSW 6 9 30.29 1026 10 16 N/A
5:53 pm 17:53 Sunny 37 2.8 21 -6.1 52 52 SW 5 7 30.30 1026 10 16 N/A
6:53 pm 18:53 Mostly Cloudy 36 2.2 21 -6.1 55 55 N N/A 30.31 1026 10 16 N/A
7:53 pm 19:53 Cloudy 37 2.8 22 -5.6 54 54 N N/A 30.31 1026 10 16 N/A
8:53 pm 20:53 Cloudy 37 2.8 22 -5.6 54 54 N N/A 30.29 1026 10 16 N/A
9:53 pm 21:53 Cloudy with Light Rain 37 2.8 26 -3.3 65 65 VRB 3 6 30.28 1025 9 14 N/A
10:53 pm 22:53 Cloudy with Light Rain 36 2.2 27 -2.8 70 70 N N/A 30.27 1025 8 13 N/A
11:53 pm 23:53 Cloudy with Light Rain 34 1.1 30 -1.1 85 85 N N/A 30.26 1025 7 11 0.01 0.25

Powered by AerisWeather